Weather History for Rome, OR

Change the Weather History Date:

Tuesday, March 12, 2013

  Actual Average Record
Temperature  
Mean Temperature 49 °F 39 °F  
Max Temperature 69 °F 53 °F 72 °F (2007)
Min Temperature 28 °F 26 °F 11 °F (2009)
Degree Days  
Heating Degree Days 16 26  
Month to date heating degree days 317 324  
Since 1 July heating degree days 4966 5058  
Cooling Degree Days 0 0  
Month to date cooling degree days 0 0  
Year to date cooling degree days 0 0  
Moisture  
Dew Point 27 °F    
Average Humidity 54    
Maximum Humidity 92    
Minimum Humidity 16    
Precipitation  
Precipitation 0.00 in 0.04 in 0.48 in (1996)
Month to date precipitation 0.03 0.32  
Year to date precipitation 0.81 1.73  
Sea Level Pressure  
Sea Level Pressure 30.19 in    
Wind  
Wind Speed 6 mph (South)    
Max Wind Speed 18 mph    
Max Gust Speed 23 mph    
T = Trace of Precipitation, MM = Missing Value Source: NWS Daily Summary

Daily Weather History Graph

Daily Weather History Graph

Search for Another Location

Airport:

Trip Planner

Search our weather history database for the weather conditions in past years. The results will help you decide how hot, cold, wet, or windy it might be!

Date:

Astronomy

Mar. 12, 2013 Rise Set
Actual Time 7:08 AM PDT 6:54 PM PDT
Civil Twilight 6:39 AM PDT 7:22 PM PDT
Nautical Twilight 6:07 AM PDT 7:55 PM PDT
Astronomical Twilight 5:34 AM PDT 8:28 PM PDT
Moon 7:15 AM PDT (3/12) 8:17 PM PDT (3/12)
Length of Visible Light 12h 42m
Length of Day
11h 46m
New Moon, 1% of the Moon is Illuminated
Mar 12
New Moon
Mar 19
First Quarter
Mar 27
Full
Apr 2
Last Quarter
Apr 10
New

Hourly Weather History & Observations

Time (PDT) Temp. Windchill Dew Point Humidity Pressure Visibility Wind Dir Wind Speed Gust Speed Precip Events Conditions
12:52 AM 37.0 °F 33.3 °F 30.0 °F 76% 30.24 in - SE 4.6 mph - N/A   Unknown
1:52 AM 35.1 °F - 28.0 °F 76% 30.25 in - Calm Calm - N/A   Unknown
2:52 AM 30.9 °F 26.2 °F 26.1 °F 82% 30.26 in - SE 4.6 mph - N/A   Unknown
3:52 AM 30.0 °F 25.2 °F 26.1 °F 85% 30.24 in - ESE 4.6 mph - N/A   Unknown
4:52 AM 30.9 °F 27.5 °F 28.0 °F 89% 30.23 in - NE 3.5 mph - N/A   Unknown
5:52 AM 30.0 °F 25.2 °F 26.1 °F 85% 30.25 in - SW 4.6 mph - N/A   Unknown
6:52 AM 28.9 °F 21.9 °F 26.1 °F 89% 30.25 in - SSE 6.9 mph - N/A   Unknown
7:52 AM 30.9 °F - 28.0 °F 89% 30.26 in - Calm Calm - N/A   Unknown
8:52 AM 41.0 °F 39.0 °F 32.0 °F 70% 30.24 in - WSW 3.5 mph - N/A   Unknown
9:52 AM 46.9 °F - 33.1 °F 59% 30.22 in - Calm Calm - N/A   Unknown
10:52 AM 52.0 °F - 34.0 °F 50% 30.21 in - South 6.9 mph - N/A   Unknown
11:52 AM 57.9 °F - 34.0 °F 41% 30.17 in - Variable 3.5 mph - N/A   Unknown
12:52 PM 63.0 °F - 33.1 °F 33% 30.16 in - Variable 6.9 mph 21.9 mph N/A   Unknown
1:52 PM 66.0 °F - 28.9 °F 25% 30.13 in - WSW 11.5 mph 20.7 mph N/A   Unknown
2:52 PM 66.9 °F - 24.1 °F 20% 30.12 in - WSW 11.5 mph - N/A   Unknown
3:52 PM 66.9 °F - 19.9 °F 17% 30.12 in - WSW 10.4 mph - N/A   Unknown
4:52 PM 66.0 °F - 24.1 °F 20% 30.12 in - West 12.7 mph - N/A   Unknown
5:52 PM 64.9 °F - 26.1 °F 23% 30.12 in - NW 5.8 mph - N/A   Unknown
6:52 PM 60.1 °F - 25.0 °F 26% 30.13 in - NE 3.5 mph - N/A   Unknown
7:52 PM 55.9 °F - 21.9 °F 27% 30.14 in - East 8.1 mph - N/A   Unknown
8:52 PM 45.0 °F 43.5 °F 21.9 °F 40% 30.18 in - WNW 3.5 mph - N/A   Unknown
9:52 PM 45.0 °F 41.2 °F 26.1 °F 48% 30.18 in - East 6.9 mph - N/A   Unknown
10:52 PM 39.9 °F 37.8 °F 21.9 °F 49% 30.20 in - SSE 3.5 mph - N/A   Unknown
11:52 PM 41.0 °F 38.0 °F 23.0 °F 49% 30.18 in - SE 4.6 mph - N/A   Unknown